Погода в Каче

Россия / Республика Крым     44°46′22″N   33°32′37″E
темп.,
°C
ветер,
м/с
пор.,
м/с
влажн.,
%
обл.,
%
осадки,
мм/ч
давл.,
гПа
погр.,
м
17 мая, вт
вт1700:00+15ююв117951 0.0 101911
03:00+14вюв22765 0.0 101841
06:00+14юв33696 0.0 101759
09:00+16юз346480 0.0 1018103
12:00+16юз446599 0.0 1018118
15:00+16юз567185 0.0 1017128
18:00+16ююз4572100 0.0 1016124
21:00+16ю457390 0.0 101568
18 мая, ср
ср1800:00+15ююв4676100 0.0 101488
03:00+15ююз467895 0.1 1013142
06:00+14юз3586100 1.3 1011290
09:00+14ююз5780100 3.5 1010456
12:00+14юв2484100 3.6 1010331
15:00+12ссв101387100 8.6 1013645
18:00+12ссв688093 0.1 1015653
21:00+12с4673100 0.6 1017357
19 мая, чт
чт1900:00+12с6671100 0.7 1019513
03:00+11с687678 1.6 1020512
06:00+10ссв458248 1.4 1021360
09:00+11с468122 1.9 1022573
12:00+13ссз787263 1.1 1022925
15:00+15ссз686410 2.7 1022893
18:00+15ссз78665 1.0 1022561
21:00+14с467076 1.5 1023215
20 мая, пт
пт2000:00+15сз4570100 0.2 1024215
03:00+15сз4575100 0.3 1023172
06:00+15сз467498 0.2 1023182
09:00+16зсз34705 0.2 1024173
12:00+16сз67725 0.0 1024359
15:00+16зсз56735 0.0 1023291
18:00+16з4675100 0.0 1022229
21:00+15юз3377100 0.0 102270
21 мая, сб
сб2100:00+15ююз4576100 0.0 1021158
03:00+15ю57805 0.0 1019251
06:00+15ю68795 0.0 1018282
09:00+16ююз9117477 0.0 1017394
12:00+16ююз912737 0.0 1016408
15:00+16ююз101372100 0.0 1015368
18:00+16ююз91371100 0.0 1013330
21:00+16ю9137392 0.0 1012311